FW3841 Weather Reports


time (UTC)temp
C
wind
direction
speed
KPH
gust
KPH
rain 1hr
cm
rain 24hr
cm
rain mn
cm
humidity
%
barometer
mb
20260503230049 31 355 0.0 8.0 0.00 0.00 0.00 29 1010.7
20260503225540 31 211 1.6 8.0 0.00 0.00 0.00 30 1010.7
20260503225040 30 278 3.2 8.0 0.00 0.00 0.00 27 1011.0
20260503224547 30 277 3.2 9.7 0.00 0.00 0.00 29 1011.1
20260503224040 30 127 3.2 9.7 0.00 0.00 0.00 29 1011.1
20260503223540 30 12 3.2 9.7 0.00 0.00 0.00 31 1011.2
20260503223048 30 0 1.6 9.7 0.00 0.00 0.00 31 1011.1
20260503222540 30 307 0.0 8.0 0.00 0.00 0.00 27 1011.3
20260503222042 30 69 1.6 8.0 0.00 0.00 0.00 28 1011.4
20260503221553 30 63 3.2 16.1 0.00 0.00 0.00 29 1011.4
20260503221040 30 98 3.2 16.1 0.00 0.00 0.00 31 1011.4
20260503220540 30 120 1.6 6.4 0.00 0.00 0.00 31 1011.5
20260503220055 30 229 1.6 6.4 0.00 0.00 0.00 28 1011.4
20260503215540 30 126 3.2 6.4 0.00 0.00 0.00 32 1011.7
20260503215041 31 82 1.6 4.8 0.00 0.00 0.00 37 1011.8
20260503214548 31 0 1.6 8.0 0.00 0.00 0.00 35 1011.8
20260503214040 31 0 1.6 11.3 0.00 0.00 0.00 30 1011.8
20260503213544 31 108 3.2 11.3 0.00 0.00 0.00 32 1011.9
20260503213048 30 64 1.6 6.4 0.00 0.00 0.00 28 1011.9
20260503212540 30 123 3.2 8.0 0.00 0.00 0.00 27 1011.9
20260503212040 30 119 3.2 8.0 0.00 0.00 0.00 28 1012.1
20260503211553 31 98 3.2 6.4 0.00 0.00 0.00 29 1012.1
20260503211040 30 0 1.6 8.0 0.00 0.00 0.00 29 1012.1
20260503210541 30 242 1.6 8.0 0.00 0.00 0.00 30 1012.1
20260503210051 30 267 3.2 9.7 0.00 0.00 0.00 29 1012.2
20260503205540 30 130 1.6 9.7 0.00 0.00 0.00 34 1012.3
20260503205040 30 123 3.2 8.0 0.00 0.00 0.00 28 1012.3
20260503204554 30 346 1.6 11.3 0.00 0.00 0.00 32 1012.4
20260503204040 30 109 3.2 11.3 0.00 0.00 0.00 26 1012.4
20260503203543 30 42 3.2 14.5 0.00 0.00 0.00 30 1012.4
20260503203056 30 77 4.8 14.5 0.00 0.00 0.00 31 1012.6
20260503202539 30 0 1.6 8.0 0.00 0.00 0.00 34 1012.6
20260503202039 30 163 3.2 9.7 0.00 0.00 0.00 37 1012.7
20260503201554 30 134 1.6 11.3 0.00 0.00 0.00 34 1012.7
20260503201044 30 0 3.2 11.3 0.00 0.00 0.00 34 1012.7
20260503200540 30 328 0.0 6.4 0.00 0.00 0.00 43 1012.8
20260503200101 29 0 1.6 6.4 0.00 0.00 0.00 36 1012.9
20260503195540 29 111 3.2 6.4 0.00 0.00 0.00 36 1013.0
20260503195040 29 70 1.6 9.7 0.00 0.00 0.00 33 1013.0
20260503194558 29 118 3.2 9.7 0.00 0.00 0.00 37 1013.1
20260503194040 29 92 0.0 12.9 0.00 0.00 0.00 33 1013.1
20260503193540 29 29 3.2 12.9 0.00 0.00 0.00 35 1013.2
20260503193107 29 11 1.6 4.8 0.00 0.00 0.00 41 1013.3
20260503192541 29 290 0.0 3.2 0.00 0.00 0.00 39 1013.3
20260503192042 28 325 0.0 8.0 0.00 0.00 0.00 36 1013.2
20260503191604 28 0 1.6 8.0 0.00 0.00 0.00 38 1013.4
20260503191041 28 103 1.6 6.4 0.00 0.00 0.00 37 1013.5
20260503190544 28 27 1.6 6.4 0.00 0.00 0.00 42 1013.5
20260503190054 28 0 0.0 4.8 0.00 0.00 0.00 38 1013.5
20260503185539 28 110 1.6 4.8 0.00 0.00 0.00 41 1013.7
20260503185040 27 0 1.6 6.4 0.00 0.00 0.00 43 1013.7
20260503184551 27 127 0.0 6.4 0.00 0.00 0.00 41 1013.7
20260503184042 27 316 1.6 4.8 0.00 0.00 0.00 40 1013.7
20260503183540 27 0 1.6 4.8 0.00 0.00 0.00 45 1013.9
20260503183108 27 150 1.6 4.8 0.00 0.00 0.00 48 1013.9
20260503182539 27 150 0.0 4.8 0.00 0.00 0.00 47 1013.9
20260503182040 27 286 0.0 3.2 0.00 0.00 0.00 55 1013.8
20260503181618 26 0 0.0 3.2 0.00 0.00 0.00 58 1013.8
20260503181040 26 133 0.0 3.2 0.00 0.00 0.00 53 1013.9
20260503180540 26 133 1.6 3.2 0.00 0.00 0.00 52 1013.9
20260503180052 26 0 0.0 1.6 0.00 0.00 0.00 60 1013.9
20260503175539 25 0 0.0 3.2 0.00 0.00 0.00 58 1013.9
20260503175043 25 0 0.0 3.2 0.00 0.00 0.00 61 1014.0
20260503174550 25 0 0.0 3.2 0.00 0.00 0.00 63 1014.0
20260503174044 24 157 0.0 3.2 0.00 0.00 0.00 60 1014.1
20260503173541 23 0 0.0 3.2 0.00 0.00 0.00 71 1014.1
20260503173055 23 0 0.0 3.2 0.00 0.00 0.00 70 1014.1
20260503172545 22 65 0.0 3.2 0.00 0.00 0.00 67 1014.2
20260503172045 22 0 0.0 1.6 0.00 0.00 0.00 73 1014.3
20260503171553 22 0 0.0 3.2 0.00 0.00 0.00 73 1014.3
20260503171043 21 0 0.0 3.2 0.00 0.00 0.00 76 1014.4
20260503170543 21 0 0.0 1.6 0.00 0.00 0.00 77 1014.3
20260503150540 10 216 0.0 1.6 0.00 0.00 0.00 95 1015.2
20260503131042 6 0 0.0 0.0 0.00 0.00 0.00 93 1014.9
20260503130542 6 0 0.0 0.0 0.00 0.00 0.00 93 1015.0
20260503110543 7 0 0.0 0.0 0.00 0.00 0.00 93 1015.5
20260503100105 8 0 0.0 0.0 0.00 0.00 0.00 92 1015.4
20260503081550 9 0 0.0 0.0 0.00 0.00 0.00 92 1015.6
20260503081048 9 0 0.0 1.6 0.00 0.00 0.00 92 1015.6
20260503080540 10 0 0.0 1.6 0.00 0.00 0.00 91 1015.6
20260503072539 10 0 0.0 0.0 0.00 0.00 0.00 91 1015.4
20260503072040 10 0 0.0 0.0 0.00 0.00 0.00 91 1015.4
20260503071547 10 0 0.0 0.0 0.00 0.00 0.00 91 1015.5
20260503071039 10 0 0.0 0.0 0.00 0.00 0.00 91 1015.6
20260503070540 10 0 0.0 0.0 0.00 0.00 0.00 91 1015.7
20260503070110 10 0 0.0 0.0 0.00 0.00 0.00 91 1015.8
20260503060114 11 0 0.0 0.0 0.00 0.00 0.00 89 1015.7
20260503055042 12 0 0.0 0.0 0.00 0.00 0.00 90 1015.8
20260503054554 12 0 0.0 0.0 0.00 0.00 0.00 89 1015.7
20260503054040 12 0 0.0 0.0 0.00 0.00 0.00 89 1015.7
20260503053543 12 0 0.0 0.0 0.00 0.00 0.00 89 1015.6
20260503053053 12 0 0.0 0.0 0.00 0.00 0.00 89 1015.8
20260503052540 12 0 0.0 0.0 0.00 0.00 0.00 89 1015.7
20260503052043 12 0 0.0 0.0 0.00 0.00 0.00 88 1015.5
20260503051552 13 0 0.0 3.2 0.00 0.00 0.00 89 1015.4
20260503051042 13 0 0.0 4.8 0.00 0.00 0.00 89 1015.5
20260503050540 13 233 1.6 6.4 0.00 0.00 0.00 88 1015.5
20260503050052 13 235 1.6 6.4 0.00 0.00 0.00 88 1015.4
20260503045542 13 0 0.0 3.2 0.00 0.00 0.00 88 1015.5
20260503045039 13 0 0.0 0.0 0.00 0.00 0.00 88 1015.4
20260503044551 13 0 0.0 0.0 0.00 0.00 0.00 87 1015.5
20260503044042 13 0 0.0 0.0 0.00 0.00 0.00 87 1015.6
20260503043539 14 0 0.0 3.2 0.00 0.00 0.00 87 1015.5
20260503043048 14 0 0.0 3.2 0.00 0.00 0.00 87 1015.5
20260503042542 14 104 0.0 1.6 0.00 0.00 0.00 87 1015.5
20260503042042 14 0 0.0 1.6 0.00 0.00 0.00 86 1015.4
20260503041557 15 0 0.0 0.0 0.00 0.00 0.00 86 1015.3
20260503041043 15 0 0.0 1.6 0.00 0.00 0.00 86 1015.4
20260503040542 15 0 0.0 1.6 0.00 0.00 0.00 85 1015.3
20260503040054 15 0 0.0 0.0 0.00 0.00 0.00 85 1015.1
20260503035542 15 0 0.0 1.6 0.00 0.00 0.00 85 1015.0
20260503035041 16 0 0.0 1.6 0.00 0.00 0.00 84 1015.0
20260503034556 16 0 0.0 1.6 0.00 0.00 0.00 84 1015.0
20260503034045 16 0 0.0 1.6 0.00 0.00 0.00 83 1014.8
20260503033541 16 0 0.0 3.2 0.00 0.00 0.00 83 1014.7
20260503033055 16 0 1.6 3.2 0.00 0.00 0.00 83 1014.5
20260503032543 17 0 0.0 3.2 0.00 0.00 0.00 82 1014.4
20260503032040 17 63 0.0 4.8 0.00 0.00 0.00 81 1014.2
20260503031551 17 61 1.6 4.8 0.00 0.00 0.00 81 1014.1
20260503031040 17 133 0.0 3.2 0.00 0.00 0.00 80 1014.0
20260503030539 18 0 0.0 3.2 0.00 0.00 0.00 79 1013.9
20260503030056 18 0 0.0 3.2 0.00 0.00 0.00 78 1013.8
20260503025539 18 0 0.0 1.6 0.00 0.00 0.00 77 1013.6
20260503025041 19 0 0.0 1.6 0.00 0.00 0.00 76 1013.6
20260503024552 20 0 0.0 3.2 0.00 0.00 0.00 75 1013.6
20260503024041 20 0 0.0 3.2 0.00 0.00 0.00 74 1013.7
20260503023542 20 0 0.0 1.6 0.00 0.00 0.00 72 1013.6
20260503023058 20 0 0.0 1.6 0.00 0.00 0.00 72 1013.6
20260503022541 21 0 0.0 1.6 0.00 0.00 0.00 70 1013.6
20260503022046 21 0 0.0 1.6 0.00 0.00 0.00 70 1013.6
20260503021553 21 0 0.0 3.2 0.00 0.00 0.00 68 1013.6
20260503021040 21 43 0.0 3.2 0.00 0.00 0.00 65 1013.7
20260503020540 21 0 0.0 3.2 0.00 0.00 0.00 65 1013.7
20260503020051 22 43 0.0 4.8 0.00 0.00 0.00 63 1013.6
20260503015540 22 0 0.0 4.8 0.00 0.00 0.00 62 1013.7
20260503015040 22 292 0.0 4.8 0.00 0.00 0.00 60 1013.7
20260503014550 22 0 0.0 3.2 0.00 0.00 0.00 60 1013.8
20260503014039 22 0 0.0 4.8 0.00 0.00 0.00 59 1013.8
20260503013540 22 0 0.0 4.8 0.00 0.00 0.00 59 1013.9
20260503013058 22 0 1.6 4.8 0.00 0.00 0.00 58 1013.8
20260503012543 22 262 0.0 6.4 0.00 0.00 0.00 59 1013.8
20260503012042 22 120 1.6 6.4 0.00 0.00 0.00 57 1013.8
20260503011604 22 215 1.6 6.4 0.00 0.00 0.00 57 1013.8
20260503011045 23 212 1.6 6.4 0.00 0.00 0.00 62 1013.8
20260503010542 23 269 0.0 3.2 0.00 0.00 0.00 60 1013.8
20260503010117 23 0 0.0 6.4 0.00 0.00 0.00 59 1013.7
20260503005542 23 46 1.6 6.4 0.00 0.00 0.00 62 1013.7
20260503005040 23 10 0.0 6.4 0.00 0.00 0.00 61 1013.7
20260503004549 23 12 1.6 6.4 0.00 0.00 0.00 58 1013.8
20260503004039 23 317 0.0 6.4 0.00 0.00 0.00 59 1013.8
20260503003539 23 279 1.6 6.4 0.00 0.00 0.00 58 1013.8
20260503003053 23 184 0.0 6.4 0.00 0.00 0.00 61 1013.8
20260503002539 23 288 1.6 6.4 0.00 0.00 0.00 60 1013.9
20260503002039 23 97 0.0 6.4 0.00 0.00 0.00 63 1013.9
20260503001611 23 302 0.0 3.2 0.00 0.00 0.00 62 1014.0
20260503001042 23 0 0.0 6.4 0.00 0.00 0.00 60 1014.0
20260503000541 23 307 3.2 6.4 0.00 0.00 0.00 58 1014.0
20260503000113 23 194 1.6 4.8 0.00 0.00 0.00 62 1014.1
20260502235542 24 342 0.0 3.2 0.00 0.00 0.00 57 1014.1
20260502235040 23 0 0.0 8.0 0.00 0.00 0.00 57 1014.1
20260502234558 23 136 1.6 8.0 0.00 0.00 0.00 58 1014.1
20260502234042 23 206 0.0 9.7 0.00 0.00 0.00 58 1014.2
20260502233543 23 124 0.0 9.7 0.00 0.00 0.00 60 1014.2
20260502233051 23 77 1.6 6.4 0.00 0.00 0.00 64 1014.3
20260502232542 23 138 0.0 3.2 0.00 0.00 0.00 66 1014.3
20260502232039 22 183 0.0 3.2 0.00 0.00 0.00 64 1014.5
20260502231549 22 181 0.0 4.8 0.00 0.00 0.00 66 1014.6
20260502231041 22 154 1.6 4.8 0.00 0.00 0.00 67 1014.7
20260502230540 21 0 0.0 4.8 0.00 0.00 0.00 69 1014.7